Stündliche Wetter Bolshie Yaki

Heute, 16 Januar, Samstag

Zeit Temperatur Niederschläge Wind Luftdruck Luftfeuchtigkeit
00:00 -17°C° 0 mm 4 m/S 745 mmHg 95%
01:00 -17°C° 0.2 mm 5 m/S 744 mmHg 94%
02:00 -15°C° 0.2 mm 5 m/S 743 mmHg 94%
03:00 -16°C° 0.2 mm 6 m/S 742 mmHg 94%
04:00 -15°C° 1.3 mm 6 m/S 741 mmHg 94%
05:00 -15°C° 1.3 mm 6 m/S 740 mmHg 94%
06:00 -14°C° 1.3 mm 6 m/S 739 mmHg 94%
07:00 -13°C° 0.6 mm 5 m/S 739 mmHg 94%
08:00 -13°C° 0.6 mm 5 m/S 738 mmHg 94%
09:00 -12°C° 0.6 mm 5 m/S 737 mmHg 94%
10:00 -11°C° 0.3 mm 4 m/S 737 mmHg 94%
11:00 -10°C° 0.3 mm 4 m/S 737 mmHg 94%
12:00 -9°C° 0.3 mm 3 m/S 736 mmHg 94%
13:00 -9°C° 0.2 mm 3 m/S 736 mmHg 94%
14:00 -8°C° 0.2 mm 2 m/S 736 mmHg 95%
15:00 -8°C° 0.2 mm 2 m/S 736 mmHg 96%
16:00 -9°C° 0.1 mm 2 m/S 737 mmHg 95%
17:00 -12°C° 0.1 mm 3 m/S 737 mmHg 95%
18:00 -13°C° 0.1 mm 3 m/S 737 mmHg 95%
19:00 -13°C° 0.1 mm 3 m/S 737 mmHg 95%
20:00 -15°C° 0.1 mm 4 m/S 737 mmHg 94%
21:00 -15°C° 0.1 mm 4 m/S 738 mmHg 94%
22:00 -16°C° 0.1 mm 4 m/S 738 mmHg 94%
23:00 -17°C° 0.1 mm 4 m/S 738 mmHg 94%

Morgen, 17 Januar, Sonntag

Zeit Temperatur Niederschläge Wind Luftdruck Luftfeuchtigkeit
00:00 -17°C° 0.1 mm 4 m/S 738 mmHg 94%
01:00 -18°C° 0 mm 4 m/S 739 mmHg 94%
02:00 -18°C° 0 mm 4 m/S 739 mmHg 94%
03:00 -19°C° 0 mm 4 m/S 740 mmHg 94%
04:00 -19°C° 0.1 mm 4 m/S 740 mmHg 94%
05:00 -19°C° 0.1 mm 4 m/S 741 mmHg 94%
06:00 -19°C° 0.1 mm 4 m/S 741 mmHg 94%
07:00 -19°C° 0 mm 4 m/S 742 mmHg 94%
08:00 -19°C° 0 mm 4 m/S 742 mmHg 94%
09:00 -19°C° 0 mm 4 m/S 743 mmHg 94%
10:00 -19°C° 0 mm 4 m/S 744 mmHg 93%
11:00 -19°C° 0 mm 4 m/S 745 mmHg 92%
12:00 -19°C° 0 mm 4 m/S 746 mmHg 91%
13:00 -19°C° 0 mm 3 m/S 746 mmHg 92%
14:00 -21°C° 0 mm 3 m/S 747 mmHg 93%
15:00 -20°C° 0 mm 2 m/S 747 mmHg 94%
16:00 -21°C° 0 mm 2 m/S 748 mmHg 96%
17:00 -24°C° 0 mm 2 m/S 749 mmHg 97%
18:00 -25°C° 0 mm 2 m/S 749 mmHg 98%
19:00 -23°C° 0 mm 1 m/S 750 mmHg 98%
20:00 -24°C° 0 mm 1 m/S 750 mmHg 98%
21:00 -25°C° 0 mm 1 m/S 751 mmHg 98%
22:00 -25°C° 0 mm 1 m/S 751 mmHg 98%
23:00 -27°C° 0 mm 1 m/S 752 mmHg 98%

übermorgen, 18 Januar, Montag

Zeit Temperatur Niederschläge Wind Luftdruck Luftfeuchtigkeit
00:00 -27°C° 0 mm 1 m/S 752 mmHg 98%
01:00 -28°C° 0 mm 1 m/S 752 mmHg 98%
02:00 -28°C° 0 mm 1 m/S 752 mmHg 99%
03:00 -28°C° 0 mm 0 m/S 753 mmHg 99%
04:00 -28°C° 0 mm 0 m/S 753 mmHg 99%
05:00 -28°C° 0 mm 0 m/S 753 mmHg 99%
06:00 -28°C° 0 mm 0 m/S 753 mmHg 99%
07:00 -29°C° 0 mm 1 m/S 753 mmHg 98%
08:00 -28°C° 0 mm 1 m/S 754 mmHg 97%
09:00 -28°C° 0 mm 1 m/S 754 mmHg 97%
10:00 -25°C° 0 mm 1 m/S 754 mmHg 96%
11:00 -24°C° 0 mm 1 m/S 754 mmHg 94%
12:00 -22°C° 0 mm 1 m/S 754 mmHg 93%
13:00 -23°C° 0 mm 1 m/S 754 mmHg 94%
14:00 -23°C° 0 mm 1 m/S 754 mmHg 95%
15:00 -24°C° 0 mm 1 m/S 754 mmHg 96%
16:00 -24°C° 0 mm 0 m/S 754 mmHg 96%
17:00 -25°C° 0 mm 0 m/S 754 mmHg 97%
18:00 -26°C° 0 mm 0 m/S 754 mmHg 97%
19:00 -26°C° 0 mm 0 m/S 754 mmHg 97%
20:00 -25°C° 0 mm 0 m/S 754 mmHg 96%
21:00 -25°C° 0 mm 0 m/S 754 mmHg 96%
22:00 -25°C° 0 mm 0 m/S 754 mmHg 96%
23:00 -24°C° 0 mm 1 m/S 754 mmHg 95%

19 Januar, Dienstag

Zeit Temperatur Niederschläge Wind Luftdruck Luftfeuchtigkeit
00:00 -24°C° 0 mm 1 m/S 754 mmHg 95%
01:00 -23°C° 0 mm 1 m/S 754 mmHg 95%
02:00 -23°C° 0 mm 1 m/S 754 mmHg 94%
03:00 -23°C° 0 mm 1 m/S 754 mmHg 94%
04:00 -22°C° 0 mm 1 m/S 753 mmHg 94%
05:00 -25°C° 0 mm 2 m/S 753 mmHg 94%
06:00 -25°C° 0 mm 2 m/S 753 mmHg 94%
07:00 -24°C° 0 mm 2 m/S 753 mmHg 93%
08:00 -25°C° 0 mm 3 m/S 753 mmHg 93%
09:00 -24°C° 0 mm 3 m/S 753 mmHg 92%
10:00 -24°C° 0 mm 3 m/S 753 mmHg 92%
11:00 -23°C° 0 mm 3 m/S 753 mmHg 92%
12:00 -21°C° 0 mm 2 m/S 753 mmHg 92%
13:00 -23°C° 0 mm 3 m/S 753 mmHg 93%
14:00 -22°C° 0 mm 3 m/S 752 mmHg 93%
15:00 -22°C° 0 mm 3 m/S 752 mmHg 94%
16:00 -23°C° 0 mm 3 m/S 752 mmHg 94%
17:00 -23°C° 0 mm 3 m/S 752 mmHg 94%
18:00 -23°C° 0 mm 3 m/S 752 mmHg 93%
19:00 -24°C° 0 mm 3 m/S 752 mmHg 93%
20:00 -24°C° 0 mm 3 m/S 752 mmHg 92%
21:00 -24°C° 0 mm 3 m/S 752 mmHg 92%
22:00 -25°C° 0 mm 3 m/S 753 mmHg 91%
23:00 -25°C° 0 mm 3 m/S 753 mmHg 90%

20 Januar, Mittwoch

Zeit Temperatur Niederschläge Wind Luftdruck Luftfeuchtigkeit
00:00 -25°C° 0 mm 3 m/S 753 mmHg 90%
01:00 -26°C° 0 mm 3 m/S 753 mmHg 89%
02:00 -26°C° 0 mm 3 m/S 753 mmHg 89%
03:00 -27°C° 0 mm 3 m/S 753 mmHg 88%
04:00 -29°C° 0 mm 3 m/S 754 mmHg 88%
05:00 -30°C° 0 mm 3 m/S 754 mmHg 89%
06:00 -31°C° 0 mm 3 m/S 755 mmHg 89%
07:00 -29°C° 0 mm 2 m/S 755 mmHg 89%
08:00 -29°C° 0 mm 2 m/S 755 mmHg 90%
09:00 -29°C° 0 mm 2 m/S 756 mmHg 90%
10:00 -27°C° 0 mm 2 m/S 756 mmHg 91%
11:00 -25°C° 0 mm 2 m/S 757 mmHg 91%
12:00 -24°C° 0 mm 2 m/S 757 mmHg 92%
13:00 -24°C° 0 mm 2 m/S 757 mmHg 92%
14:00 -21°C° 0 mm 1 m/S 757 mmHg 93%
15:00 -21°C° 0 mm 1 m/S 757 mmHg 93%
16:00 -22°C° 0 mm 1 m/S 758 mmHg 93%
17:00 -23°C° 0 mm 1 m/S 758 mmHg 93%
18:00 -24°C° 0 mm 1 m/S 759 mmHg 93%
19:00 -24°C° 0 mm 1 m/S 759 mmHg 94%
20:00 -25°C° 0 mm 0 m/S 759 mmHg 94%
21:00 -25°C° 0 mm 0 m/S 760 mmHg 95%
22:00 -25°C° 0 mm 0 m/S 760 mmHg 95%
23:00 -25°C° 0 mm 1 m/S 760 mmHg 94%

21 Januar, Donnerstag

Zeit Temperatur Niederschläge Wind Luftdruck Luftfeuchtigkeit
00:00 -25°C° 0 mm 1 m/S 760 mmHg 94%
01:00 -25°C° 0 mm 1 m/S 760 mmHg 94%
02:00 -24°C° 0 mm 1 m/S 760 mmHg 94%
03:00 -24°C° 0 mm 1 m/S 760 mmHg 94%
04:00 -27°C° 0 mm 2 m/S 760 mmHg 93%
05:00 -27°C° 0 mm 2 m/S 759 mmHg 92%
06:00 -27°C° 0 mm 2 m/S 759 mmHg 92%
07:00 -27°C° 0 mm 3 m/S 759 mmHg 90%
08:00 -26°C° 0 mm 3 m/S 759 mmHg 88%
09:00 -26°C° 0 mm 3 m/S 758 mmHg 87%
10:00 -25°C° 0 mm 4 m/S 758 mmHg 86%
11:00 -24°C° 0 mm 4 m/S 757 mmHg 86%
12:00 -23°C° 0 mm 4 m/S 757 mmHg 85%
13:00 -22°C° 0 mm 5 m/S 756 mmHg 87%
14:00 -21°C° 0 mm 5 m/S 755 mmHg 89%
15:00 -21°C° 0 mm 5 m/S 754 mmHg 91%
16:00 -20°C° 0.2 mm 5 m/S 754 mmHg 92%
17:00 -19°C° 0.2 mm 5 m/S 753 mmHg 93%
18:00 -18°C° 0.2 mm 5 m/S 753 mmHg 94%
19:00 -17°C° 0.7 mm 5 m/S 752 mmHg 94%
20:00 -15°C° 0.7 mm 5 m/S 752 mmHg 94%
21:00 -15°C° 0.7 mm 4 m/S 752 mmHg 94%
22:00 -15°C° 0.2 mm 4 m/S 752 mmHg 94%
23:00 -13°C° 0.2 mm 3 m/S 752 mmHg 95%
Mehr zeigen

Wir brauchen deine Erlaubnis

Meteoprog und unser Service Anbieter werden persönliche Daten aufbewahren, so wie Cookies, Geräte Bezeichnung oder ähnliche Technologien von deinem Gerät und Prozess, so wie Persönliche Daten Inhalte und Werbungen, genauso wie social Media und den Verkehr zu analysieren.

  • Aufbewahrung und/oder Zugang zu deiner Geräte Informationen.

    Cookies, Geräte Bezeichnung oder andere Informationen, können aufbewahrt oder Zugang zu deinem Gerät erhalten, für den Grund, der oben angegeben wird.

  • Personalisierte Werbung und Inhalte, Messungen, Einblick in das Publikum und Produkt Entwicklung.

    Werbungen und Inhalte können personalisiert werden, basierend auf ein Profil. Mehr Daten können besser personalisierte Werbungen und Inhalte hinzufügen. Werbung und Inhalte können gezeigt und gemessen werden. Einblicke über das Publikum, welche die Werbung gesehen haben und den Inhalt, können abgeleitet werden. So wie Daten können genutzt werden, um es zu verbessern oder die Benutzer Erfahrung zu verbessern das System und die Software.

Wenn du “Ich stimme zu” klickst, erlaubst du uns, die Cookies zu benutzen die Geräte Bezeichnung, den Web oder ähnliche Technologien zu benutzen. Deine Settings, können in deinem Gerät bei deinem Browser geändert werden.

Für den bestimmten Zweck, berechtigten Interessen beruhen darauf, mehr als auf den Inhalt. Du kannst mehr darüber in unseren Privaten und Cookie Politik lesen.